Weather History for George, South Africa

Change the Weather History Date:

Friday, November 22, 2013

  Actual Average Record
Temperature  
Mean Temperature 64 °F -  
Max Temperature 80 °F 71 °F 80 °F (2013)
Min Temperature 48 °F 56 °F 48 °F (2011)
Degree Days  
Heating Degree Days 1    
Growing Degree Days 14 (Base 50)    
Moisture  
Dew Point 53 °F    
Average Humidity 69    
Maximum Humidity 88    
Minimum Humidity 34    
Precipitation  
Precipitation 0.00 in - - ()
Sea Level Pressure  
Sea Level Pressure 29.95 in    
Wind  
Wind Speed 5 mph ()    
Max Wind Speed 13 mph    
Max Gust Speed -    
Visibility 9.1 miles    
Events      
Averages and records for this station are not official NWS values.
T = Trace of Precipitation, MM = Missing Value Source: Averaged Metar Reports

Daily Weather History Graph

Daily Weather History Graph

Search for Another Location

Airport:

Trip Planner

Search our weather history database for the weather conditions in past years. The results will help you decide how hot, cold, wet, or windy it might be!

Date:

Astronomy

Nov. 22, 2013 Rise Set
Actual Time 5:14 AM SAST 7:18 PM SAST
Civil Twilight 4:46 AM SAST 7:46 PM SAST
Nautical Twilight 4:12 AM SAST 8:21 PM SAST
Astronomical Twilight 3:36 AM SAST 8:57 PM SAST
Moon 11:04 PM SAST (11/22) 9:07 AM SAST (11/22)
Length of Visible Light 15h 00m
Length of Day
14h 04m
Waning Gibbous, 80% of the Moon is Illuminated
Nov 22
Waning Gibbous
Nov 25
Last Quarter
Dec 3
New
Dec 9
First Quarter
Dec 17
Full

Hourly Weather History & Observations

Time (SAST) Temp. Dew Point Humidity Pressure Visibility Wind Dir Wind Speed Gust Speed Precip Events Conditions
12:00 AM 53.6 °F 48.2 °F 82% 30.01 in - NW 4.6 mph - N/A   Clear
1:00 AM 51.8 °F 48.2 °F 88% 30.01 in - NW 3.5 mph - N/A   Clear
2:00 AM 51 °F 47 °F 83% 30.00 in 12 mi WNW 3.5 mph - -  
2:00 AM 51.8 °F 48.2 °F 88% 29.98 in - Variable 2.3 mph - N/A   Clear
3:00 AM 51.8 °F 48.2 °F 88% 29.95 in - NNW 4.6 mph - N/A   Clear
4:00 AM 50.0 °F 46.4 °F 87% 29.95 in - North 2.3 mph - N/A   Clear
5:00 AM 50 °F 47 °F 85% 29.95 in 12 mi NNW 4.6 mph - -  
5:00 AM 50.0 °F 46.4 °F 87% 29.95 in - North 4.6 mph - N/A   Clear
6:00 AM 51.8 °F 46.4 °F 82% 29.92 in - Variable 2.3 mph - N/A   Clear
7:00 AM 57.2 °F 50.0 °F 77% 29.92 in - Variable 2.3 mph - N/A   Clear
8:00 AM 63 °F 53 °F 60% 29.93 in 12 mi NNE 2.3 mph - -  
8:00 AM 62.6 °F 51.8 °F 68% 29.92 in - Variable 2.3 mph - N/A   Clear
9:00 AM 69.8 °F 55.4 °F 60% 29.89 in - Variable 2.3 mph - N/A   Clear
10:00 AM 75.2 °F 57.2 °F 53% 29.86 in - SE 5.8 mph - N/A   Clear
11:00 AM 77 °F 61 °F 47% 29.88 in 12 mi South 6.9 mph - -  
11:00 AM 77.0 °F 60.8 °F 57% 29.86 in - South 6.9 mph - N/A   Clear
12:00 PM 77.0 °F 55.4 °F 47% 29.86 in - South 8.1 mph - N/A   Clear
1:00 PM 78.8 °F 53.6 °F 42% 29.86 in 6.2 mi South 11.5 mph - N/A   Partly Cloudy
2:00 PM 76 °F 53 °F 34% 29.91 in 12 mi SSW 8.1 mph - -  
2:00 PM 77.0 °F 53.6 °F 44% 29.89 in - SSW 8.1 mph - N/A   Clear
3:00 PM 75.2 °F 53.6 °F 47% 29.92 in - SSW 8.1 mph - N/A   Clear
4:00 PM 73.4 °F 53.6 °F 50% 29.92 in - SW 9.2 mph - N/A   Clear
5:00 PM 71.6 °F 55.4 °F 57% 29.95 in - WSW 12.7 mph - N/A   Clear
6:00 PM 68.0 °F 57.2 °F 68% 29.98 in 6.2 mi WSW 9.2 mph - N/A   Partly Cloudy
7:00 PM 66.2 °F 59.0 °F 78% 30.01 in 6.2 mi SW 10.4 mph - N/A   Partly Cloudy
8:00 PM 63 °F 59 °F 81% 30.06 in 12 mi West 5.8 mph - -   Partly Cloudy
8:00 PM 62.6 °F 59.0 °F 88% 30.04 in 6.2 mi West 5.8 mph - N/A   Scattered Clouds
9:00 PM 62.6 °F 59.0 °F 88% 30.06 in - West 8.1 mph - N/A   Clear
10:00 PM 62.6 °F 57.2 °F 82% 30.09 in 6.2 mi West 8.1 mph - N/A   Mostly Cloudy
11:00 PM 62.6 °F 57.2 °F 82% 30.09 in 6.2 mi NW 6.9 mph - N/A   Mostly Cloudy